timestamp,surface_pressure_avg,surface_temp_avg,battery_voltage,lat,long
2023-11-20 00:09:01+00:00,217.308,7.22,12.09,47.84626,-54.09684
2023-11-20 00:19:00+00:00,217.7631,7.2,12.09,47.84626,-54.09684
2023-11-20 00:29:00+00:00,215.2631,7.2,12.09,47.84626,-54.09684
2023-11-20 00:39:00+00:00,215.2314,7.2,12.09,47.84626,-54.09684
2023-11-20 00:49:00+00:00,222.8098,7.2,12.09,47.84626,-54.09684
2023-11-20 00:59:00+00:00,224.7914,7.2,12.09,47.84626,-54.09684
2023-11-20 01:09:00+00:00,223.2714,7.2,12.09,47.84626,-54.09684
2023-11-20 01:19:00+00:00,229.8131,7.2,12.09,47.84626,-54.09684
2023-11-20 01:29:00+00:00,242.9364,7.2,12.09,47.84626,-54.09684
2023-11-20 01:39:00+00:00,249.593,7.2,12.09,47.84626,-54.09684
2023-11-20 01:49:00+00:00,254.9564,7.2,12.09,47.84626,-54.09684
2023-11-20 01:59:00+00:00,263.7947,7.2,12.09,47.84626,-54.09684
2023-11-20 02:09:00+00:00,274.8948,7.2,12.09,47.84626,-54.09684
2023-11-20 02:19:00+00:00,281.2814,7.2,12.09,47.84626,-54.09684
2023-11-20 02:29:00+00:00,289.8781,7.2,12.09,47.84626,-54.09684
2023-11-20 02:39:00+00:00,298.6863,7.2,12.09,47.84626,-54.09684
2023-11-20 02:49:00+00:00,303.848,7.2,12.09,47.84626,-54.09684
2023-11-20 02:59:00+00:00,301.9497,7.2,12.09,47.84626,-54.09684
2023-11-20 03:09:00+00:00,306.4696,7.1,12.09,47.84626,-54.09684
2023-11-20 03:19:01+00:00,315.7747,7.1,12.09,47.84626,-54.09684
2023-11-20 03:29:01+00:00,321.663,7.1,12.09,47.84626,-54.09684
2023-11-20 03:39:01+00:00,321.5079,7.0,12.09,47.84626,-54.09684
2023-11-20 03:49:01+00:00,326.6647,7.09,12.09,47.84626,-54.09684
2023-11-20 03:59:01+00:00,331.8146,7.1,12.09,47.84626,-54.09684
2023-11-20 04:09:01+00:00,330.2179,7.1,12.09,47.84626,-54.09684
2023-11-20 04:19:01+00:00,329.61800000000005,7.1,12.09,47.84626,-54.09684
2023-11-20 04:29:01+00:00,333.67800000000005,7.1,12.09,47.84626,-54.09684
2023-11-20 04:39:01+00:00,334.1947,7.14,12.09,47.84626,-54.09684
2023-11-20 04:49:01+00:00,330.2713,7.17,12.09,47.84626,-54.09684
2023-11-20 04:59:01+00:00,328.7529,7.19,12.09,47.84626,-54.09684
2023-11-20 05:09:01+00:00,332.3331,7.2,12.09,47.84626,-54.09684
2023-11-20 05:19:00+00:00,334.98800000000006,7.2,12.09,47.84626,-54.09684
2023-11-20 05:29:00+00:00,335.733,7.2,12.09,47.84626,-54.09684
2023-11-20 05:39:00+00:00,338.0363,7.2,12.09,47.84626,-54.09684
2023-11-20 05:49:00+00:00,339.793,7.21,12.09,47.84626,-54.09684
2023-11-20 05:59:00+00:00,333.293,7.2,12.09,47.84626,-54.09684
2023-11-20 06:09:00+00:00,326.8247,7.2,12.09,47.84626,-54.09684
2023-11-20 06:19:00+00:00,322.598,7.23,12.09,47.84626,-54.09684
2023-11-20 06:29:00+00:00,318.843,7.25,12.09,47.84626,-54.09684
2023-11-20 06:39:00+00:00,311.5947,7.25,12.09,47.84626,-54.09684
2023-11-20 06:49:00+00:00,305.353,7.26,12.09,47.84626,-54.09684
2023-11-20 06:59:00+00:00,301.4297,7.27,12.09,47.84626,-54.09684
2023-11-20 07:09:00+00:00,298.4447,7.29,12.09,47.84626,-54.09684
2023-11-20 07:19:00+00:00,295.2664,7.3,12.09,47.84626,-54.09684
2023-11-20 07:29:00+00:00,291.1346,7.3,12.09,47.84626,-54.09684
2023-11-20 07:39:00+00:00,286.6281,7.3,12.09,47.84626,-54.09684
2023-11-20 07:49:00+00:00,282.7114,7.3,12.09,47.84626,-54.09684
2023-11-20 07:59:00+00:00,279.1063,7.3,12.09,47.84626,-54.09684
2023-11-20 08:09:00+00:00,276.5048,7.3,12.09,47.84626,-54.09684
2023-11-20 08:19:00+00:00,273.4813,7.3,12.09,47.84626,-54.09684
2023-11-20 08:29:00+00:00,275.0014,7.3,12.09,47.84626,-54.09684
2023-11-20 08:39:00+00:00,274.5681,7.29,12.09,47.84626,-54.09684
2023-11-20 08:49:00+00:00,276.0515,7.29,12.09,47.84626,-54.09684
2023-11-20 08:59:00+00:00,274.0648,7.29,12.09,47.84626,-54.09684
2023-11-20 09:09:00+00:00,271.6914,7.28,12.09,47.84626,-54.09684
2023-11-20 09:19:00+00:00,267.9964,7.28,12.09,47.84626,-54.09684
2023-11-20 09:29:00+00:00,268.9864,7.27,12.09,47.84626,-54.09684
2023-11-20 09:39:00+00:00,270.9464,7.28,12.09,47.84626,-54.09684
2023-11-20 09:49:00+00:00,269.2797,7.28,12.09,47.84626,-54.09684
2023-11-20 09:59:00+00:00,266.2081,7.28,12.09,47.84626,-54.09684
2023-11-20 10:09:00+00:00,265.9114,7.28,12.09,47.84626,-54.09684
2023-11-20 10:19:00+00:00,266.0748,7.29,12.09,47.84626,-54.09684
2023-11-20 10:29:00+00:00,267.9664,7.3,12.09,47.84626,-54.09684
2023-11-20 10:39:00+00:00,267.943,7.3,12.09,47.84626,-54.09684
2023-11-20 10:49:00+00:00,267.2931,7.3,12.09,47.84626,-54.09684
2023-11-20 10:59:00+00:00,261.6264,7.3,12.09,47.84626,-54.09684
2023-11-20 11:09:00+00:00,261.1531,7.3,12.09,47.84626,-54.09684
2023-11-20 11:19:00+00:00,262.3381,7.3,12.09,47.84626,-54.09684
2023-11-20 11:29:00+00:00,259.4147,7.3,12.09,47.84626,-54.09684
2023-11-20 11:39:00+00:00,251.3531,7.28,12.09,47.84626,-54.09684
2023-11-20 11:49:00+00:00,256.5998,7.28,12.09,47.84626,-54.09684
2023-11-20 11:59:00+00:00,263.5847,7.3,12.09,47.84626,-54.09684
2023-11-20 12:09:00+00:00,260.0764,7.3,12.09,47.84626,-54.09684
2023-11-20 12:19:00+00:00,253.8048,7.26,12.09,47.84626,-54.09684
2023-11-20 12:29:00+00:00,260.2197,7.28,12.09,47.84626,-54.09684
2023-11-20 12:39:00+00:00,263.1414,7.3,12.09,47.84626,-54.09684
2023-11-20 12:49:00+00:00,258.588,7.3,12.09,47.84626,-54.09684
2023-11-20 12:59:00+00:00,258.278,7.28,12.09,47.84626,-54.09684
2023-11-20 13:09:00+00:00,266.3248,7.27,12.09,47.84626,-54.09684
2023-11-20 13:19:00+00:00,270.4714,7.26,12.01,47.84626,-54.09684
2023-11-20 13:29:00+00:00,272.7964,7.26,12.01,47.84626,-54.09684
2023-11-20 13:39:00+00:00,282.8481,7.25,12.01,47.84626,-54.09684
2023-11-20 13:49:00+00:00,297.423,7.3,12.01,47.84626,-54.09684
2023-11-20 13:59:00+00:00,304.188,7.35,12.01,47.84626,-54.09684
2023-11-20 14:09:00+00:00,309.928,7.39,12.01,47.84626,-54.09684
2023-11-20 14:19:00+00:00,320.5313,7.4,12.09,47.84626,-54.09684
2023-11-20 14:29:00+00:00,333.463,7.4,12.09,47.84626,-54.09684
2023-11-20 14:39:00+00:00,339.4929,7.41,12.09,47.84626,-54.09684
2023-11-20 14:49:00+00:00,343.8113,7.46,12.09,47.84626,-54.09684
2023-11-20 14:59:00+00:00,352.2079,7.47,12.09,47.84626,-54.09684
2023-11-20 15:09:00+00:00,360.7113,7.49,12.09,47.84626,-54.09684
2023-11-20 15:19:00+00:00,363.8163,7.5,12.17,47.84626,-54.09684
2023-11-20 15:29:00+00:00,367.4929,7.5,12.17,47.84626,-54.09684
2023-11-20 15:39:00+00:00,373.4163,7.52,12.17,47.84626,-54.09684
2023-11-20 15:49:00+00:00,373.9929,7.54,12.17,47.84626,-54.09684
2023-11-20 15:59:00+00:00,373.0995,7.5,12.17,47.84626,-54.09684
2023-11-20 16:09:00+00:00,372.533,7.52,12.17,47.84626,-54.09684
2023-11-20 16:19:00+00:00,373.0846,7.53,12.65,47.84626,-54.09684
2023-11-20 16:29:00+00:00,376.973,7.59,12.65,47.84626,-54.09684
2023-11-20 16:39:00+00:00,376.7662,7.6,12.65,47.84626,-54.09684
2023-11-20 16:49:00+00:00,372.483,7.5,12.65,47.84626,-54.09684
2023-11-20 16:59:00+00:00,374.1096,7.5,12.65,47.84626,-54.09684
2023-11-20 17:09:00+00:00,377.1479,7.5,12.65,47.84626,-54.09684
2023-11-20 17:19:01+00:00,375.8162,7.56,12.33,47.84626,-54.09684
2023-11-20 17:29:01+00:00,372.1146,7.58,12.33,47.84626,-54.09684
2023-11-20 17:39:01+00:00,374.843,7.6,12.33,47.84626,-54.09684
2023-11-20 17:49:01+00:00,372.6229,7.55,12.33,47.84626,-54.09684
2023-11-20 17:59:01+00:00,365.3229,7.5,12.33,47.84626,-54.09684
2023-11-20 18:09:01+00:00,365.6579,7.5,12.33,47.84626,-54.09684
2023-11-20 18:19:00+00:00,364.7195,7.5,12.25,47.84626,-54.09684
2023-11-20 18:29:00+00:00,360.5379,7.5,12.25,47.84626,-54.09684
2023-11-20 18:39:00+00:00,356.1663,7.49,12.25,47.84626,-54.09684
2023-11-20 18:49:00+00:00,353.3746,7.5,12.25,47.84626,-54.09684
2023-11-20 18:59:00+00:00,347.7812,7.5,12.25,47.84626,-54.09684
2023-11-20 19:09:00+00:00,336.1346,7.4,12.25,47.84626,-54.09684
2023-11-20 19:19:00+00:00,332.4346,7.45,12.17,47.84626,-54.09684
2023-11-20 19:29:00+00:00,325.9013,7.47,12.17,47.84626,-54.09684
2023-11-20 19:39:00+00:00,316.83799999999997,7.48,12.17,47.84626,-54.09684
2023-11-20 19:49:00+00:00,309.4147,7.46,12.17,47.84626,-54.09684
2023-11-20 19:59:00+00:00,303.7764,7.45,12.17,47.84626,-54.09684
2023-11-20 20:09:00+00:00,299.858,7.43,12.17,47.84626,-54.09684
2023-11-20 20:19:00+00:00,292.4164,7.4,12.09,47.84626,-54.09684
2023-11-20 20:29:00+00:00,286.5547,7.3,12.09,47.84626,-54.09684
2023-11-20 20:39:00+00:00,282.898,7.26,12.09,47.84626,-54.09684
2023-11-20 20:49:00+00:00,278.808,7.2,12.09,47.84626,-54.09684
2023-11-20 20:59:00+00:00,271.6215,7.2,12.09,47.84626,-54.09684
2023-11-20 21:09:00+00:00,268.9814,7.2,12.09,47.84626,-54.09684
2023-11-20 21:19:00+00:00,269.0381,7.2,12.09,47.84626,-54.09684
2023-11-20 21:29:00+00:00,262.548,7.2,12.09,47.84626,-54.09684
2023-11-20 21:39:00+00:00,252.743,7.2,12.09,47.84626,-54.09684
2023-11-20 21:49:00+00:00,252.9798,7.2,12.09,47.84626,-54.09684
2023-11-20 21:59:00+00:00,254.9281,7.21,12.09,47.84626,-54.09684
2023-11-20 22:09:00+00:00,252.4614,7.28,12.09,47.84626,-54.09684
2023-11-20 22:19:01+00:00,247.2314,7.3,12.09,47.84626,-54.09684
2023-11-20 22:29:01+00:00,248.0864,7.3,12.09,47.84626,-54.09684
2023-11-20 22:39:01+00:00,244.7231,7.3,12.09,47.84626,-54.09684
2023-11-20 22:49:01+00:00,238.2697,7.28,12.09,47.84626,-54.09684
2023-11-20 22:59:01+00:00,234.4698,7.22,12.09,47.84626,-54.09684
2023-11-20 23:09:01+00:00,239.5281,7.21,12.09,47.84626,-54.09684
2023-11-20 23:19:00+00:00,236.4864,7.24,12.09,47.84626,-54.09684
2023-11-20 23:29:00+00:00,230.8164,7.22,12.09,47.84626,-54.09684
2023-11-20 23:39:00+00:00,228.6031,7.24,12.09,47.84626,-54.09684
2023-11-20 23:49:00+00:00,231.1648,7.27,12.09,47.84626,-54.09684
2023-11-20 23:59:00+00:00,233.3481,7.3,12.09,47.84626,-54.09684
